Location: Camps Bay
(33.9517°S, 18.3844°E)
Time: 00:22:39
(UTC+00:00)

GPS 2-04 Rocket1 - Pass Details

Date: 18 January 2020
Orbit: 418 x 551 km, 35.6° (Epoch: 23 February)

Event Time Altitude Azimuth Distance (km) Brightness Sun altitude
Exits shadow 02:22:10 29° 257° (WSW) 806 3.3 -16.7°
Maximum altitude 02:23:46 88° 176° (S) 430 2.2 -16.4°
Drops below altitude 10° 02:27:15 10° 78° (ENE) 1,527 5.6 -15.9°
Sets 02:29:24 0° 77° (ENE) 2,406 6.7 -15.5°
